Location: Home
(42.5358°N, 72.7383°W)
Time: 05:29:51
(UTC-05:00)

A-11 Canister half - Pass Details

Date: 07 December 2021
Orbit: 1524 x 1684 km, 47.3° (Epoch: 17 January)

Event Time Altitude Azimuth Distance (km) Brightness Sun altitude
Exits shadow 01:17:17 15° 67° (ENE) 3,525 11.1 -62.0°
Drops below altitude 10° 01:18:34 10° 67° (ENE) 3,915 11.4 -61.8°
Sets 01:21:41 0° 67° (ENE) 4,888 12.0 -61.3°
